This demonstration page uses our WeatherBlox Daily Observations layout. Learn more.

Left ArrowRight Arrow

Hourly Observations for August 29, 2018

Temp ( °F °C ) Dew Point ( °F °C ) Humidity (%) Winds ( mph kmh ) Pressure ( in mb ) Visibility ( mi km ) Precip ( " mm )
12:16 am 00:16 Clear 75 24 75 24 100 100 S 7 11 30.00 1016 10 16 N/A
12:35 am 00:35 Clear 75 24 75 24 100 100 SSW 5 7 30.03 1017 10 16 N/A
12:55 am 00:55 Clear 75 24 75 24 100 100 SSW 6 9 30.03 1017 10 16 N/A
1:16 am 01:16 Clear 73 23 73 23 100 100 SSW 6 9 30.03 1017 10 16 N/A
1:35 am 01:35 Clear 73 23 73 23 100 100 S 6 9 30.00 1016 10 16 N/A
1:55 am 01:55 Clear 73 23 73 23 100 100 S 6 9 30.00 1016 10 16 N/A
2:16 am 02:16 Clear 73 23 73 23 100 100 S 3 6 30.00 1016 10 16 N/A
2:35 am 02:35 Clear 73 23 73 23 100 100 SSE 7 11 29.97 1015 10 16 N/A
2:55 am 02:55 Clear 73 23 73 23 100 100 S 6 9 29.97 1015 10 16 N/A
2:56 am 02:56 Clear 73 23 73 23 100 100 S 6 9 29.97 1015 10 16 N/A
3:15 am 03:15 Clear 73 23 73 23 100 100 S 5 7 29.97 1015 10 16 N/A
3:35 am 03:35 Clear 73 23 73 23 100 100 S 8 13 29.97 1015 10 16 N/A
3:55 am 03:55 Clear 73 23 73 23 100 100 SSW 7 11 29.97 1015 10 16 N/A
4:15 am 04:15 Clear 73 23 73 23 100 100 SW 5 7 29.97 1015 10 16 N/A
4:35 am 04:35 Clear 72 22 72 22 100 100 W 6 9 30.00 1016 10 16 N/A
4:55 am 04:55 Mostly Cloudy 72 22 72 22 100 100 SW 3 6 30.00 1016 10 16 N/A
5:15 am 05:15 Mostly Cloudy 72 22 72 22 100 100 SSW 5 7 29.97 1015 10 16 N/A
5:35 am 05:35 Partly Cloudy 72 22 72 22 100 100 S 5 7 29.97 1015 10 16 N/A
5:55 am 05:55 Clear 72 22 72 22 100 100 S 5 7 29.97 1015 10 16 N/A
6:15 am 06:15 Mostly Cloudy 72 22 72 22 100 100 S 3 6 30.00 1016 10 16 N/A
6:35 am 06:35 Mostly Cloudy 72 22 72 22 100 100 S 5 7 30.00 1016 10 16 N/A
6:55 am 06:55 Mostly Cloudy 72 22 72 22 100 100 S 5 7 30.00 1016 10 16 N/A
7:15 am 07:15 Partly Cloudy 72 22 72 22 100 100 S 6 9 30.00 1016 10 16 N/A
7:36 am 07:36 Mostly Cloudy 72 22 72 22 100 100 SSW 6 9 30.00 1016 5 8 N/A
7:55 am 07:55 Cloudy 73 23 73 23 100 100 WSW 8 13 30.03 1017 10 16 N/A
8:15 am 08:15 Cloudy 73 23 73 23 100 100 W 7 11 30.03 1017 7 11 N/A
8:35 am 08:35 Mostly Cloudy 73 23 73 23 100 100 W 8 13 30.03 1017 10 16 N/A
8:36 am 08:36 Mostly Cloudy 73 23 73 23 100 100 W 8 13 30.03 1017 10 16 N/A
8:55 am 08:55 Mostly Cloudy 75 24 75 24 100 100 WSW 6 9 30.03 1017 10 16 N/A
9:15 am 09:15 Mostly Cloudy 73 23 73 23 100 100 W 8 13 30.03 1017 10 16 N/A
9:16 am 09:16 Mostly Cloudy 75 24 73 23 94 94 W 8 13 30.03 1017 10 16 N/A
9:35 am 09:35 Partly Cloudy 73 23 73 23 100 100 W 7 11 30.03 1017 10 16 N/A
9:55 am 09:55 Sunny 75 24 73 23 94 94 W 9 15 30.03 1017 10 16 N/A
10:16 am 10:16 Sunny 77 25 72 22 83 83 W 5 7 30.03 1017 10 16 N/A
10:35 am 10:35 Sunny 79 26 72 22 79 79 N N/A 30.03 1017 10 16 N/A
10:55 am 10:55 Sunny 79 26 72 22 79 79 S 5 7 30.00 1016 10 16 N/A
11:15 am 11:15 Sunny 79 26 72 22 79 79 SE 10 17 29.97 1015 10 16 N/A
11:35 am 11:35 Sunny 81 27 72 22 74 74 SSE 13 20 29.97 1015 10 16 N/A
11:55 am 11:55 Sunny 79 26 72 22 79 79 S 14 22 29.97 1015 10 16 N/A
12:15 pm 12:15 Sunny 79 26 72 22 79 79 SSE 9 15 29.94 1014 10 16 N/A
12:35 pm 12:35 Sunny 81 27 73 23 79 79 S 12 19 29.94 1014 10 16 N/A
12:55 pm 12:55 Sunny 82 28 73 23 74 74 WSW 3 6 29.97 1015 10 16 N/A
12:56 pm 12:56 Sunny 82 28 73 23 74 74 SW 6 9 29.97 1015 10 16 N/A
1:15 pm 13:15 Sunny 84 29 73 23 70 70 W 8 13 30.00 1016 10 16 N/A
1:35 pm 13:35 Sunny 84 29 73 23 70 70 WSW 8 13 30.00 1016 10 16 N/A
1:55 pm 13:55 Sunny 86 30 73 23 66 66 W 7 11 30.00 1016 10 16 N/A
2:15 pm 14:15 Sunny 86 30 73 23 66 66 W 9 15 30.00 1016 10 16 N/A
2:36 pm 14:36 Sunny 86 30 73 23 66 66 W 8 13 30.00 1016 10 16 N/A
2:55 pm 14:55 Sunny 88 31 73 23 62 62 W 15 24 29.97 1015 10 16 N/A
3:15 pm 15:15 Partly Cloudy 86 30 73 23 66 66 W 12 19 30.00 1016 10 16 N/A
3:35 pm 15:35 Partly Cloudy 84 29 73 23 70 70 WNW 8 13 30.00 1016 10 16 N/A
3:36 pm 15:36 Partly Cloudy 84 29 73 23 70 70 W 8 13 30.00 1016 10 16 N/A
3:55 pm 15:55 Partly Cloudy 84 29 73 23 70 70 WNW 14 22 30.00 1016 10 16 N/A
4:15 pm 16:15 Sunny 86 30 73 23 66 66 WNW 17 28 30.00 1016 10 16 N/A
4:35 pm 16:35 Partly Cloudy 84 29 73 23 70 70 WNW 14 22 30.00 1016 10 16 N/A
4:36 pm 16:36 Partly Cloudy 84 29 73 23 70 70 W 14 22 30.00 1016 10 16 N/A
4:55 pm 16:55 Partly Cloudy 82 28 73 23 74 74 WNW 13 20 30.00 1016 10 16 N/A
5:15 pm 17:15 Sunny 84 29 73 23 70 70 WNW 15 24 30.00 1016 10 16 N/A
5:35 pm 17:35 Mostly Cloudy 81 27 73 23 79 79 NW 13 20 30.00 1016 10 16 N/A
5:36 pm 17:36 Mostly Cloudy 81 27 73 23 79 79 NW 13 20 30.00 1016 10 16 N/A
5:55 pm 17:55 Mostly Cloudy 81 27 73 23 79 79 NW 14 22 30.00 1016 10 16 N/A
6:15 pm 18:15 Partly Cloudy 79 26 72 22 79 79 NNW 14 22 30.00 1016 10 16 N/A
6:35 pm 18:35 Sunny 79 26 70 21 74 74 NNW 10 17 30.00 1016 10 16 N/A
6:55 pm 18:55 Sunny 77 25 70 21 79 79 NW 8 13 30.03 1017 10 16 N/A
7:15 pm 19:15 Sunny 77 25 70 21 79 79 NNW 8 13 30.00 1016 10 16 N/A
7:16 pm 19:16 Sunny 77 25 70 21 79 79 NNW 8 13 30.00 1016 10 16 N/A
7:35 pm 19:35 Sunny 75 24 72 22 89 89 NNW 7 11 30.03 1017 10 16 N/A
7:55 pm 19:55 Sunny 75 24 72 22 89 89 NNW 6 9 30.03 1017 10 16 N/A
8:15 pm 20:15 Sunny 75 24 72 22 89 89 NNW 8 13 30.03 1017 10 16 N/A
8:16 pm 20:16 Sunny 75 24 72 22 89 89 NNW 7 11 30.03 1017 10 16 N/A
8:35 pm 20:35 Clear 75 24 72 22 89 89 NNW 6 9 30.03 1017 10 16 N/A
8:55 pm 20:55 Clear 72 22 72 22 100 100 NNW 5 7 30.03 1017 10 16 N/A
9:15 pm 21:15 Clear 72 22 70 21 94 94 N 5 7 30.06 1018 10 16 N/A
9:35 pm 21:35 Clear 72 22 70 21 94 94 NNW 7 11 30.06 1018 10 16 N/A
9:36 pm 21:36 Clear 72 22 70 21 94 94 NNW 7 11 30.06 1018 10 16 N/A
9:55 pm 21:55 Clear 72 22 70 21 94 94 NNW 7 11 30.06 1018 10 16 N/A
10:15 pm 22:15 Clear 70 21 70 21 100 100 NNW 3 6 30.09 1019 10 16 N/A
10:35 pm 22:35 Clear 70 21 70 21 100 100 WNW 3 6 30.09 1019 10 16 N/A
10:55 pm 22:55 Clear 70 21 70 21 100 100 WNW 5 7 30.12 1020 10 16 N/A
11:16 pm 23:16 Clear 70 21 70 21 100 100 NW 3 6 30.12 1020 10 16 N/A
11:35 pm 23:35 Clear 70 21 70 21 100 100 NNW 7 11 30.12 1020 10 16 N/A
11:55 pm 23:55 Clear 70 21 70 21 100 100 N 8 13 30.12 1020 10 16 N/A

Powered by AerisWeather